Theta_e
309 308 308 308 307 309 310 310 310 311 311 311 310 311 310 310 310 309 309 310 311 311 313 315 317 321 321 328 333 342 346 346 345 344 347 347 347 346 344 343 343 342 339 337
309 308 309 309 310 310 310 310 311 311 311 310 309 310 310 310 310 309 310 311 309 309 310 312 319 321 322 326 330 337 345 347 346 345 347 349 349 348 348 344 343 343 342 341
309 310 311 312 311 312 311 311 312 312 312 311 311 311 311 311 310 310 310 309 309 310 311 317 323 324 324 326 327 329 334 338 340 344 346 346 345 346 345 346 346 345 344 344
309 310 311 311 311 311 312 314 317 318 315 314 312 314 312 310 310 311 311 309 308 308 309 312 321 322 324 326 327 326 326 324 324 327 338 346 345 344 344 341 341 345 343 343
312 311 311 311 312 315 314 317 317 317 315 311 311 310 314 310 310 310 310 310 310 310 308 310 317 321 324 324 326 327 326 325 325 324 325 333 344 345 344 342 343 343 341 341
311 311 311 311 312 316 317 317 316 315 311 315 314 312 315 313 311 310 310 311 312 312 311 308 314 320 322 323 324 323 323 322 322 321 321 322 325 329 332 334 336 338 340 341
312 312 312 316 317 316 314 313 315 315 315 317 315 315 313 312 311 310 310 310 310 311 309 308 311 316 319 321 321 322 322 322 321 321 321 320 320 323 327 329 332 333 333 336
313 315 316 318 317 317 316 314 315 318 319 318 315 317 314 312 312 313 313 311 311 309 307 308 314 317 319 319 320 322 322 322 322 322 321 320 321 323 326 325 325 325 325 325
314 315 315 317 316 315 318 317 315 316 316 316 316 316 315 314 315 316 315 312 312 310 310 311 314 317 319 317 321 322 321 319 319 317 319 321 321 323 324 325 326 328 328 327
312 314 315 316 316 315 315 314 315 314 321 321 315 318 317 315 317 315 316 315 312 311 308 309 310 311 312 316 320 321 319 318 318 318 321 321 322 323 323 325 326 326 327 327
312 312 314 313 313 312 312 316 314 314 317 321 316 314 314 319 317 315 314 314 313 312 311 311 312 311 312 313 314 318 317 317 318 320 322 322 323 323 324 324 325 327 329 331
313 314 315 314 312 312 312 312 312 310 312 317 314 315 313 312 312 314 312 313 315 315 313 311 314 313 312 311 312 314 316 317 318 319 321 322 322 322 323 324 324 326 326 324
314 313 314 312 309 308 313 315 313 313 312 315 316 314 311 310 312 312 312 312 312 313 313 312 313 313 314 313 311 312 314 316 317 319 320 322 319 319 319 320 320 321 322 320
313 309 311 313 310 307 309 312 313 313 313 314 314 314 312 312 314 313 312 312 312 310 313 314 314 313 315 315 315 313 313 315 316 316 319 318 318 319 319 319 321 321 317 316
308 310 309 309 309 310 311 312 312 312 312 314 313 312 313 314 313 313 312 314 315 315 314 313 314 314 313 315 316 315 314 314 316 317 316 318 318 318 319 318 317 316 316 315
305 309 309 310 310 310 311 310 311 311 311 310 312 313 314 314 313 314 313 313 314 314 315 314 314 316 316 315 315 314 315 314 314 314 314 314 315 316 316 316 317 316 315 315
305 306 308 310 311 311 312 311 316 316 316 317 317 317 315 314 314 314 313 311 313 314 313 314 314 313 313 313 314 314 315 314 313 313 314 314 314 315 316 316 315 314 314 314
305 305 304 308 309 314 309 316 316 316 317 317 317 316 314 312 311 309 309 310 312 310 309 308 309 310 310 311 312 313 312 312 312 312 313 313 313 314 314 314 314 314 313 313
303 303 304 306 305 309 311 317 317 316 314 313 313 312 310 309 307 306 307 312 308 306 306 306 306 307 308 308 309 308 309 309 309 310 311 312 313 313 313 313 313 313 312 311
308 306 307 304 313 311 312 313 312 312 315 312 311 309 308 306 306 305 303 304 305 305 305 306 305 306 305 306 307 306 306 306 307 308 309 310 311 311 312 312 312 311 311 310
314 315 310 306 313 312 312 311 310 313 310 306 307 306 305 307 306 305 304 305 305 305 305 305 304 305 305 305 305 305 305 305 305 305 306 308 309 311 311 311 311 311 310 310
314 313 314 316 315 312 309 308 309 308 306 306 306 306 306 306 306 306 306 303 303 305 306 304 303 303 303 302 303 303 304 305 304 305 304 305 307 308 309 310 310 310 309 309
314 314 307 310 306 306 307 306 305 305 305 306 306 306 305 304 305 305 304 303 302 302 302 300 300 300 302 302 302 304 304 304 305 305 305 306 307 308 309 309 309 308 308 308
310 308 312 308 308 307 305 305 305 306 306 306 305 306 306 306 305 304 304 302 302 302 301 300 300 301 302 302 302 303 302 303 304 304 305 305 305 306 307 307 307 307 308 308
308 307 306 305 304 305 306 306 305 305 305 305 305 305 305 305 305 304 303 302 301 301 300 299 299 301 301 301 301 301 302 303 305 306 307 307 308 308 308 308 308 308 309 309
307 307 309 309 305 304 305 305 304 304 305 305 305 305 304 303 304 302 303 299 300 300 300 299 298 299 299 299 301 301 302 303 304 304 304 305 306 307 308 309 309 309 309 310
Wind_Speed
1 2 6 10 8 8 5 4 9 12 14 4 12 17 10 8 6 9 11 12 12 12 17 22 22 30 28 33 31 33 35 36 37 34 31 30 32 33 32 31 34 34 34 35
3 6 11 5 5 7 7 9 11 8 12 4 11 16 10 6 6 8 9 13 13 6 10 13 17 21 30 31 31 31 32 31 35 37 34 25 30 28 26 30 33 33 33 34
7 10 3 4 6 6 8 5 4 5 5 4 5 16 11 10 5 7 9 10 8 10 10 8 6 19 27 33 34 33 32 30 26 26 26 18 15 15 21 26 24 28 31 33
6 10 11 11 8 7 5 7 6 5 2 3 2 15 13 10 11 6 9 8 9 9 9 7 7 7 21 32 36 32 28 24 20 20 21 23 23 17 19 19 26 30 25 23
10 5 6 6 12 5 8 6 6 4 4 2 5 4 16 3 10 10 8 11 10 10 8 10 10 17 27 27 34 32 28 25 23 20 18 18 17 17 18 14 13 18 20 27
14 2 6 8 6 4 2 1 3 2 1 6 7 10 23 10 12 10 6 9 11 9 8 11 18 24 22 24 30 29 29 24 20 17 14 14 15 15 14 14 14 16 17 20
8 8 3 3 4 2 3 5 5 6 2 12 4 6 9 14 16 13 15 12 11 8 9 9 12 12 17 27 31 30 27 23 18 14 11 9 10 13 14 13 12 10 10 12
4 5 3 2 2 5 2 5 5 8 7 14 4 6 8 6 12 16 13 11 7 8 8 10 16 17 24 29 32 31 28 23 19 14 11 8 9 11 10 10 11 12 12 12
1 3 2 2 4 6 2 4 2 2 2 3 5 7 7 9 6 17 11 8 7 8 8 7 12 13 24 23 29 31 26 21 18 17 16 14 12 12 11 9 9 9 8 7
4 2 2 1 3 4 4 4 1 2 4 5 5 6 9 8 11 15 15 11 10 9 9 8 8 6 3 24 33 32 29 27 26 25 22 18 15 13 12 10 9 9 7 6
5 5 4 2 4 6 1 0 2 3 3 3 3 5 5 7 3 12 12 10 8 8 8 7 10 10 9 10 22 33 32 30 28 29 24 20 19 18 15 12 11 10 8 7
4 4 4 6 3 2 4 6 5 3 4 4 4 8 12 7 5 7 16 14 11 5 3 9 10 11 10 5 13 23 30 31 32 31 27 26 23 21 18 16 13 11 10 8
4 2 1 5 3 4 2 4 4 2 2 8 5 8 6 7 6 6 11 14 8 9 4 5 7 5 8 17 12 15 18 29 33 30 29 28 26 22 21 20 17 15 14 12
5 4 6 7 6 4 3 5 6 6 4 6 13 20 18 13 10 10 9 10 12 7 8 4 5 6 1 7 14 10 14 21 20 22 28 28 27 25 26 22 21 19 16 14
3 3 4 4 6 4 7 11 12 10 15 10 20 18 5 7 7 7 9 9 10 9 9 7 5 5 2 1 3 7 7 6 18 22 23 27 25 25 24 24 22 19 17 16
1 2 2 4 6 8 13 12 12 14 17 17 15 15 2 5 6 9 10 11 8 7 8 8 8 7 4 6 8 3 8 9 2 7 9 16 16 18 24 24 21 17 15 14
4 4 1 5 1 6 7 5 5 6 5 3 6 5 4 8 10 8 9 12 11 6 6 7 7 7 10 15 13 8 8 9 15 9 6 10 15 16 16 16 16 16 17 17
6 5 3 3 2 4 4 1 2 3 1 2 2 4 5 5 9 12 13 15 9 6 6 8 6 9 20 23 20 18 17 21 19 20 17 18 18 19 20 20 19 19 19 20
6 5 1 2 3 6 5 1 3 4 9 4 3 8 10 11 11 14 9 6 5 7 8 10 17 18 21 21 20 20 20 22 24 22 20 20 22 24 26 24 22 21 22 23
7 4 4 2 2 5 2 1 4 3 8 3 4 8 11 8 12 12 10 11 16 19 24 20 20 23 21 23 23 23 21 20 20 20 21 24 26 27 33 31 28 30 30 31
2 1 3 2 4 6 1 5 5 1 3 5 5 9 11 13 14 20 20 19 19 19 24 23 22 22 24 27 26 23 25 24 25 27 29 27 27 31 33 32 31 31 29 30
3 2 2 2 2 6 1 2 3 4 4 7 12 15 18 18 19 19 15 18 19 22 19 24 27 28 29 29 27 29 29 26 26 29 30 32 33 32 27 28 29 27 28 29
2 3 3 6 5 3 3 6 7 4 6 14 16 19 20 21 20 20 19 18 21 23 19 26 27 31 30 28 29 30 25 24 25 26 25 25 26 28 30 25 26 24 26 25
1 2 2 3 2 3 9 10 4 8 13 18 18 22 22 22 22 22 19 17 19 19 16 23 26 19 20 25 29 30 26 29 30 29 28 28 29 28 28 28 26 25 23 21
3 3 1 5 8 11 7 10 14 19 20 20 22 24 24 21 24 24 21 18 17 18 19 22 17 19 22 23 28 28 28 29 28 24 18 16 21 23 22 24 26 27 28 28
2 2 1 4 6 6 16 16 21 20 21 19 23 24 25 21 23 25 20 16 18 18 19 16 20 24 24 27 27 27 27 25 22 21 23 23 22 23 22 21 22 32 35 34
Wind_Direction
17 116 231 230 210 227 246 253 260 276 276 259 265 264 268 259 268 272 279 283 285 233 243 244 250 232 210 207 192 191 195 202 199 196 199 205 214 220 223 225 220 239 235 226
13 248 245 232 217 225 241 257 276 289 279 242 262 267 271 234 227 244 266 288 277 248 242 246 233 214 209 201 193 188 192 191 199 202 203 203 207 212 227 221 222 228 233 231
188 237 227 196 272 262 254 232 239 241 290 306 299 286 300 290 233 258 268 259 279 264 253 224 217 204 200 194 190 187 186 186 185 190 196 197 195 209 221 233 227 221 230 236
229 243 219 250 250 202 248 195 206 245 47 252 145 290 276 279 277 232 270 282 281 288 286 278 255 210 204 196 191 185 178 178 181 185 195 195 201 197 213 227 238 230 222 222
232 224 193 214 245 160 236 186 224 216 229 205 199 268 272 283 286 274 260 270 252 247 216 243 234 230 213 200 191 179 173 174 176 182 188 192 202 217 221 219 219 229 238 242
245 244 175 221 248 183 76 247 276 327 162 256 242 222 276 260 256 271 229 246 257 262 252 226 227 225 214 206 185 178 174 173 174 180 187 195 199 208 215 226 237 235 234 231
256 247 218 175 163 47 91 56 320 305 291 269 349 300 270 278 273 265 270 261 261 262 269 237 211 198 190 184 184 176 173 167 171 179 190 208 224 225 229 225 224 231 245 248
201 303 163 77 169 199 83 151 177 260 268 282 2 255 264 298 298 281 273 259 264 290 282 241 211 193 185 183 181 178 177 168 174 182 195 214 231 239 241 237 241 244 245 263
221 281 316 149 153 143 165 194 218 270 17 298 228 279 296 270 340 360 345 353 336 324 324 288 217 192 175 172 178 182 179 171 177 185 189 198 214 226 231 238 236 239 238 246
227 285 283 221 135 76 148 159 42 357 289 268 278 270 260 314 343 334 323 326 339 348 18 24 29 40 141 174 182 185 185 183 188 195 195 197 204 214 219 225 229 229 233 227
172 169 241 218 183 190 33 286 87 155 178 270 301 261 236 244 315 307 301 316 316 4 355 69 38 34 14 280 201 191 193 192 197 201 198 201 215 219 223 227 222 221 216 198
210 172 206 219 323 217 165 197 156 128 266 243 254 264 266 296 322 327 304 296 289 260 338 27 22 7 13 295 269 232 204 204 207 208 204 210 213 216 219 224 218 204 194 192
197 232 319 332 352 358 200 195 211 124 118 229 247 267 315 327 349 311 304 303 291 307 262 110 100 1 353 344 310 267 260 222 214 216 209 213 221 219 221 219 217 205 192 189
161 176 184 237 222 173 225 233 222 199 213 249 235 272 280 301 322 326 330 319 308 287 260 239 137 134 32 350 348 324 265 254 247 237 216 218 223 225 232 224 203 199 207 218
106 224 199 250 250 225 234 247 251 221 240 235 270 259 288 303 302 302 308 339 338 345 332 288 295 293 138 193 322 354 338 265 237 235 236 235 226 222 219 207 209 211 218 232
18 255 358 268 250 254 261 259 258 256 264 261 264 269 245 291 311 321 322 338 333 336 338 349 357 351 336 263 248 252 304 312 137 160 230 245 244 228 211 211 210 217 225 239
172 164 105 269 248 308 287 242 256 286 214 228 256 213 298 302 302 316 314 318 292 296 313 319 322 322 313 313 299 273 261 276 304 289 214 220 223 220 221 215 213 226 245 258
161 138 142 265 10 239 234 182 150 310 289 315 240 229 275 300 310 308 293 283 263 293 310 312 302 298 304 304 295 294 298 305 296 281 266 250 232 232 231 234 236 245 253 261
178 129 176 174 207 299 275 78 19 21 298 174 281 300 307 301 299 286 272 259 267 271 280 293 298 286 287 290 287 292 289 288 287 284 281 269 257 243 238 232 233 242 255 264
91 75 143 146 204 246 233 333 305 314 271 118 324 300 302 313 297 291 302 298 289 289 289 287 289 285 281 276 278 279 276 273 272 277 274 277 274 259 250 248 247 257 257 263
25 4 216 222 230 277 146 300 303 188 271 309 299 294 294 280 269 289 289 281 283 278 275 264 269 267 271 279 274 257 263 260 268 273 271 266 264 262 258 256 253 246 250 260
164 196 250 230 257 279 146 310 151 248 289 304 303 292 284 277 276 280 283 285 280 278 273 276 278 268 268 268 263 268 257 259 267 266 262 259 253 249 249 249 252 257 256 253
159 206 211 191 228 238 220 231 274 251 280 297 293 291 285 279 274 282 276 283 290 278 269 277 274 273 267 262 256 256 251 260 262 251 250 259 252 242 238 236 239 239 240 239
311 34 251 1 318 242 293 303 277 305 294 294 289 292 290 279 280 280 277 289 280 276 268 265 277 266 267 259 264 258 265 265 260 253 253 249 243 240 236 235 237 238 237 240
226 4 303 270 294 312 261 319 311 304 301 298 296 293 293 301 288 288 276 282 284 280 261 264 272 267 261 258 262 259 255 254 251 245 252 251 231 223 221 222 223 226 236 234
193 233 247 279 325 294 290 304 305 299 299 299 304 306 298 302 294 300 282 300 283 284 270 261 272 260 261 262 256 254 252 248 249 259 253 246 240 238 236 231 232 237 240 242